Satellite: NOAA-11 Catalog number: 19531 Epoch time: 11020.26363139 Element set: 369 Inclination: 098.7589 deg RA of node: 110.5058 deg Eccentricity: 0.0010389 Arg of perigee: 249.8388 deg Mean anomaly: 110.1650 deg Mean motion: 14.14900825 rev/day Decay rate: -2.00e-06 rev/day^2 Epoch rev: 15183 Checksum: 284
Satellite: NOAA-12 Catalog number: 21263 Epoch time: 11020.42618242 Element set: 863 Inclination: 098.7585 deg RA of node: 038.4785 deg Eccentricity: 0.0011560 Arg of perigee: 256.2482 deg Mean anomaly: 103.7415 deg Mean motion: 14.25679410 rev/day Decay rate: 3.4e-07 rev/day^2 Epoch rev: 2335 Checksum: 277
Satellite: MET-3/5 Catalog number: 21655 Epoch time: 11020.52688619 Element set: 17 Inclination: 082.5579 deg RA of node: 155.0917 deg Eccentricity: 0.0013925 Arg of perigee: 161.8478 deg Mean anomaly: 198.3099 deg Mean motion: 13.17025340 rev/day Decay rate: 5.1e-07 rev/day^2 Epoch rev: 93428 Checksum: 311
Satellite: MET-2/21 Catalog number: 22782 Epoch time: 11019.72549645 Element set: 995 Inclination: 082.5473 deg RA of node: 080.6752 deg Eccentricity: 0.0023032 Arg of perigee: 151.5888 deg Mean anomaly: 208.6539 deg Mean motion: 13.83652451 rev/day Decay rate: -1.8e-07 rev/day^2 Epoch rev: 87802 Checksum: 323
Satellite: OKEAN-4 Catalog number: 23317 Epoch time: 11020.73683363 Element set: 452 Inclination: 082.5412 deg RA of node: 150.7990 deg Eccentricity: 0.0020634 Arg of perigee: 243.2935 deg Mean anomaly: 116.6167 deg Mean motion: 14.82927079 rev/day Decay rate: 3.12e-06 rev/day^2 Epoch rev: 87869 Checksum: 301
Satellite: NOAA-14 Catalog number: 23455 Epoch time: 11020.40901815 Element set: 351 Inclination: 098.8619 deg RA of node: 104.4677 deg Eccentricity: 0.0009267 Arg of perigee: 344.5040 deg Mean anomaly: 015.5855 deg Mean motion: 14.13804861 rev/day Decay rate: -3.1e-07 rev/day^2 Epoch rev: 82819 Checksum: 288
Satellite: NOAA-15 Catalog number: 25338 Epoch time: 11020.35149605 Element set: 678 Inclination: 098.6400 deg RA of node: 008.6302 deg Eccentricity: 0.0010812 Arg of perigee: 158.2840 deg Mean anomaly: 201.8811 deg Mean motion: 14.24879746 rev/day Decay rate: 1.78e-06 rev/day^2 Epoch rev: 65967 Checksum: 303
Satellite: RESURS Catalog number: 25394 Epoch time: 11020.85569236 Element set: 704 Inclination: 098.2991 deg RA of node: 031.9995 deg Eccentricity: 0.0001209 Arg of perigee: 347.3170 deg Mean anomaly: 012.7979 deg Mean motion: 14.24221802 rev/day Decay rate: -4.0e-08 rev/day^2 Epoch rev: 65133 Checksum: 288
Satellite: FENGYUN1 Catalog number: 25730 Epoch time: 11020.34954501 Element set: 237 Inclination: 098.8041 deg RA of node: 344.8943 deg Eccentricity: 0.0022765 Arg of perigee: 007.6665 deg Mean anomaly: 352.4836 deg Mean motion: 14.08491344 rev/day Decay rate: -5.5e-07 rev/day^2 Epoch rev: 60225 Checksum: 287
Satellite: OKEAN-0 Catalog number: 25860 Epoch time: 11020.69279207 Element set: 208 Inclination: 097.8633 deg RA of node: 351.3767 deg Eccentricity: 0.0001878 Arg of perigee: 087.0915 deg Mean anomaly: 273.0504 deg Mean motion: 14.73702977 rev/day Decay rate: 7.6e-07 rev/day^2 Epoch rev: 61893 Checksum: 318
Satellite: NOAA-16 Catalog number: 26536 Epoch time: 11020.32519910 Element set: 158 Inclination: 099.1565 deg RA of node: 047.7581 deg Eccentricity: 0.0011291 Arg of perigee: 088.4012 deg Mean anomaly: 271.8452 deg Mean motion: 14.12595476 rev/day Decay rate: 2.12e-06 rev/day^2 Epoch rev: 53248 Checksum: 291
Satellite: NOAA-17 Catalog number: 27453 Epoch time: 11020.36544155 Element set: 154 Inclination: 098.4020 deg RA of node: 066.7198 deg Eccentricity: 0.0011095 Arg of perigee: 218.8502 deg Mean anomaly: 141.1885 deg Mean motion: 14.24229939 rev/day Decay rate: 2.80e-06 rev/day^2 Epoch rev: 44561 Checksum: 291
Satellite: NOAA-18 Catalog number: 28654 Epoch time: 11020.44004220 Element set: 639 Inclination: 098.9784 deg RA of node: 331.3703 deg Eccentricity: 0.0014548 Arg of perigee: 158.0712 deg Mean anomaly: 202.1096 deg Mean motion: 14.11426896 rev/day Decay rate: -1.69e-06 rev/day^2 Epoch rev: 29208 Checksum: 293
Satellite: NOAA-19 Catalog number: 33591 Epoch time: 11020.40468848 Element set: 834 Inclination: 098.8126 deg RA of node: 323.1558 deg Eccentricity: 0.0014675 Arg of perigee: 037.2972 deg Mean anomaly: 322.9220 deg Mean motion: 14.11121318 rev/day Decay rate: 5.9e-07 rev/day^2 Epoch rev: 10054 Checksum: 284
/EX SB KEPS @ AMSAT $ORB11020.M Orbital Elements 11020.MISC
HR AMSAT ORBITAL ELEMENTS FOR MANNED AND MISCELLANEOUS SATELLITES FROM WA5QGD FORT WORTH,TX January 20, 2011 Send Subscribe/unsubscribe to KEPS at http://www.amsat.org/mailman/listinfo/keps BID: ORB11020.M TO ALL RADIO AMATEURS BT
Satellite: HUBBLE Catalog number: 20580 Epoch time: 11019.13656013 Element set: 703 Inclination: 028.4721 deg RA of node: 269.9148 deg Eccentricity: 0.0003108 Arg of perigee: 336.0472 deg Mean anomaly: 023.9942 deg Mean motion: 15.01143351 rev/day Decay rate: 4.81e-06 rev/day^2 Epoch rev: 93723 Checksum: 261
Satellite: ISS Catalog number: 25544 Epoch time: 11020.86512223 Element set: 682 Inclination: 051.6428 deg RA of node: 196.2115 deg Eccentricity: 0.0004490 Arg of perigee: 201.0557 deg Mean anomaly: 314.0403 deg Mean motion: 15.72063951 rev/day Decay rate: 9.632e-05 rev/day^2 Epoch rev: 69771 Checksum: 269
Satellite: CO-58 Catalog number: 28895 Epoch time: 11019.69431497 Element set: 0781 Inclination: 097.9878 deg RA of node: 261.6371 deg Eccentricity: 0.0017504 Arg of perigee: 330.1414 deg Mean anomaly: 029.8818 deg Mean motion: 14.59996539 rev/day Decay rate: 2.44e-06 rev/day^2 Epoch rev: 27857 Checksum: 368
Satellite: FALCON Catalog number: 30776 Epoch time: 11020.83927563 Element set: 4 Inclination: 035.4321 deg RA of node: 162.4981 deg Eccentricity: 0.0001843 Arg of perigee: 303.8067 deg Mean anomaly: 056.2475 deg Mean motion: 15.04071727 rev/day Decay rate: 6.04e-06 rev/day^2 Epoch rev: 21284 Checksum: 265
Satellite: MAST Catalog number: 31126 Epoch time: 11019.63682982 Element set: 0064 Inclination: 097.9118 deg RA of node: 055.1443 deg Eccentricity: 0.0093549 Arg of perigee: 273.3565 deg Mean anomaly: 085.6930 deg Mean motion: 14.53665699 rev/day Decay rate: 1.49e-06 rev/day^2 Epoch rev: 19950 Checksum: 329
Satellite: CAPE1 Catalog number: 31130 Epoch time: 11019.55185013 Element set: 0086 Inclination: 097.9143 deg RA of node: 052.0665 deg Eccentricity: 0.0101705 Arg of perigee: 283.1641 deg Mean anomaly: 075.8252 deg Mean motion: 14.52281016 rev/day Decay rate: 1.92e-06 rev/day^2 Epoch rev: 19906 Checksum: 264
Satellite: COMPASS Catalog number: 32787 Epoch time: 11019.29351840 Element set: 0887 Inclination: 097.8700 deg RA of node: 085.7831 deg Eccentricity: 0.0014892 Arg of perigee: 304.6560 deg Mean anomaly: 055.3208 deg Mean motion: 14.82115110 rev/day Decay rate: 5.49e-06 rev/day^2 Epoch rev: 14750 Checksum: 296
Satellite: AAUSAT2 Catalog number: 32788 Epoch time: 11019.61214415 Element set: 0877 Inclination: 097.8684 deg RA of node: 086.2760 deg Eccentricity: 0.0014505 Arg of perigee: 304.8113 deg Mean anomaly: 055.1814 deg Mean motion: 14.82276867 rev/day Decay rate: 7.79e-06 rev/day^2 Epoch rev: 14756 Checksum: 324
Satellite: DO-64 Catalog number: 32789 Epoch time: 11019.72595145 Element set: 0894 Inclination: 097.8769 deg RA of node: 087.1415 deg Eccentricity: 0.0014660 Arg of perigee: 302.0394 deg Mean anomaly: 057.9406 deg Mean motion: 14.82550321 rev/day Decay rate: 2.82e-06 rev/day^2 Epoch rev: 14758 Checksum: 329
Satellite: CO-66 Catalog number: 32791 Epoch time: 11019.21451238 Element set: 0878 Inclination: 097.8699 deg RA of node: 085.6850 deg Eccentricity: 0.0015390 Arg of perigee: 304.0069 deg Mean anomaly: 055.9722 deg Mean motion: 14.81860639 rev/day Decay rate: 6.11e-06 rev/day^2 Epoch rev: 14744 Checksum: 329
Satellite: RS-30 Catalog number: 32953 Epoch time: 11020.61115638 Element set: 403 Inclination: 082.5001 deg RA of node: 254.4752 deg Eccentricity: 0.0019279 Arg of perigee: 351.1083 deg Mean anomaly: 008.9650 deg Mean motion: 12.43010391 rev/day Decay rate: 1.0e-07 rev/day^2 Epoch rev: 12075 Checksum: 240
Satellite: TACSAT-3 Catalog number: 35001 Epoch time: 11019.92579522 Element set: 0501 Inclination: 040.4567 deg RA of node: 349.7627 deg Eccentricity: 0.0022377 Arg of perigee: 190.5673 deg Mean anomaly: 169.4676 deg Mean motion: 15.44487517 rev/day Decay rate: 5.304e-05 rev/day^2 Epoch rev: 09412 Checksum: 309
Satellite: PHARMSAT Catalog number: 35002 Epoch time: 11020.27701721 Element set: 451 Inclination: 040.4704 deg RA of node: 345.1460 deg Eccentricity: 0.0024585 Arg of perigee: 196.9317 deg Mean anomaly: 163.0680 deg Mean motion: 15.44724721 rev/day Decay rate: 4.318e-05 rev/day^2 Epoch rev: 9420 Checksum: 253
Satellite: HAWKSAT1 Catalog number: 35003 Epoch time: 11020.90950759 Element set: 492 Inclination: 040.4613 deg RA of node: 327.0113 deg Eccentricity: 0.0024417 Arg of perigee: 227.0119 deg Mean anomaly: 132.8649 deg Mean motion: 15.51194989 rev/day Decay rate: 1.3539e-04 rev/day^2 Epoch rev: 9446 Checksum: 286
Satellite: CP6 Catalog number: 35004 Epoch time: 11019.93995825 Element set: 0502 Inclination: 040.4598 deg RA of node: 329.2561 deg Eccentricity: 0.0023801 Arg of perigee: 226.0213 deg Mean anomaly: 133.8626 deg Mean motion: 15.53320987 rev/day Decay rate: 1.6257e-04 rev/day^2 Epoch rev: 09434 Checksum: 295
Satellite: AEROCUB3 Catalog number: 35005 Epoch time: 11006.09222617 Element set: 610 Inclination: 040.4461 deg RA of node: 021.7975 deg Eccentricity: 0.0025578 Arg of perigee: 084.1677 deg Mean anomaly: 280.7191 deg Mean motion: 16.39196088 rev/day Decay rate: 1.4049365e-01 rev/day^2 Epoch rev: 9254 Checksum: 305
